HODOYOSHI-1

Last updated on Mon Oct 14 2024 00:02:24 GMT+0000 (Coordinated Universal Time)

1 40299U 14070B 24287.48679688 .00066038 00000+0 81303-3 0 9995 2 40299 97.1235 346.8983 0004679 329.3948 30.7036 15.60010395553482
UTC large
Height (km)
Speed (km/s)
/
Latitude / Longitude
Inclination (degrees)
Orbital Period (minutes)
Azimuth
Elevation
Range (km)
Doppler Factor

Next 0 passes for location: London (51.5072 / 0.1276)

Sorry there are no passes over London.